Tracking 32142 objects as of 13-Nov-2025
HD Live streaming from Space Station
objects crossing your sky now

STARLINK-35078

Track STARLINK-35078 now!
10-day predictions
STARLINK-35078 is classified as:


NORAD ID: 65523
Int'l Code: 2025-200D
Perigee: 553.0 km
Apogee: 555.5 km
Inclination: 97.6 °
Period: 95.6 minutes
Semi major axis: 6925 km
RCS: Unknown
Launch date: September 6, 2025
Source: United States (US)
Launch site: AIR FORCE EASTERN TEST RANGE (AFETR)
Your satellite tracking list
Your tracking list is empty




NASA's NSSDC Master Catalog

Two Line Element Set (TLE):
1 65523U 25200D   25317.00002315  .00037954  00000-0  25665-2 0  9993
2 65523  97.6039  24.7404 0001807  68.7145 173.4230 15.06426311  5942
Source of the keplerian elements: AFSPC